Voltar ao catálogo

STARLINK-31764

AtivoComunicaçõesVLEO
NORAD 59653·PAYLOAD·🇺🇸 United States

Lançado May 3, 2024 de Cape Canaveral Space Force Station

Loading…

Próximas Passagens (próximas 24 horas)

TLE

AtualizadoSource: CelesTrak SupGP

Época: Sep 14, 2026, 21:17 UTC

1 59653C 24082Y   26257.88729167 -.00037006  00000+0 -13405-2 0  2573
2 59653  43.0001 151.1386 0001306 265.6372 299.8253 15.27593383    19

Acompanhe STARLINK-31764 em tempo real com AllMySat

Download on the App Store